Location: Caltech
(34.1382°N, 118.1253°W)
Time: 04:07:27
(UTC-08:00)

HO-68 - Visible Passes

Search period start: 12 February 2016 00:00
Search period end: 22 February 2016 00:00
Orbit: 1193 x 1204 km, 100.2° (Epoch: 12 February)

Date Brightness Start Highest point End Pass type
(mag) Time Alt. Az. Time Alt. Az. Time Alt. Az.
12 Feb ? 18:36:45 10° SE 18:43:15 39° ENE 18:49:48 10° N visible
12 Feb ? 20:24:31 10° SSW 20:30:53 34° W 20:37:19 10° NW visible
13 Feb ? 18:20:32 10° ESE 18:26:31 30° ENE 18:32:31 10° N visible
13 Feb ? 20:07:05 10° S 20:13:53 46° W 20:20:46 10° NNW visible
14 Feb ? 18:04:35 10° ESE 18:09:50 23° ENE 18:15:06 10° NNE visible
14 Feb ? 19:49:51 10° S 19:56:55 62° WSW 20:04:03 10° NNW visible
15 Feb ? 19:32:50 10° SSE 19:40:00 82° WSW 19:47:14 10° NNW visible
15 Feb ? 21:27:08 10° WSW 21:28:33 11° W 21:29:57 10° WNW visible
16 Feb ? 19:15:58 10° SSE 19:23:07 77° ENE 19:30:19 10° N visible
16 Feb ? 21:07:18 10° SW 21:11:23 16° W 21:15:30 10° WNW visible
17 Feb ? 18:59:17 10° SSE 19:06:17 58° ENE 19:13:18 10° N visible
17 Feb ? 20:48:57 10° SW 20:54:17 22° W 20:59:41 10° NW visible
18 Feb ? 18:42:48 10° SE 18:49:29 44° ENE 18:56:12 10° N visible
18 Feb ? 20:31:05 10° SSW 20:37:14 30° W 20:43:26 10° NW visible
19 Feb ? 18:26:30 10° SE 18:32:44 33° ENE 18:38:58 10° N visible
19 Feb ? 20:13:33 10° SSW 20:20:12 41° W 20:26:56 10° NNW visible
20 Feb ? 18:10:26 10° ESE 18:16:01 25° ENE 18:21:37 10° NNE visible
20 Feb ? 19:56:14 10° S 20:03:14 55° WSW 20:10:17 10° NNW visible
21 Feb ? 19:39:07 10° S 19:46:17 74° WSW 19:53:31 10° NNW visible
